User: anonymous   Login
Location: Austin, TX
(30.3000°N, 97.7500°W)
Time: 20:15:23
(UTC-06:00)
Language:

Cosmos 2082 Rocket - Orbit

View from above orbital plane
View from above orbital plane
View from above satellite
View from above satellite

Ground track
Ground track

The orbit data is extracted from the following two-line orbital elements,

1 20625U 90046B   14352.72478899  .00000302  00000-0  18181-3 0  8911
2 20625 071.0005 262.0255 0012846 044.8216 341.6967 14.14553960268941
Epoch (UTC): 18 December 2014 17:23:41
Eccentricity: 0.0012846
inclination: 71.0005°
perigee height: 834 km
apogee height: 853 km
right ascension of ascending node: 262.0255°
argument of perigee: 44.8216°
revolutions per day: 14.14553960
mean anomaly at epoch: 341.6967°
orbit number at epoch: 26894

The dashed part of the orbit path shows where the satellite is in the earth's shadow,  

DLR